[[{"header":{"parameterUnit":"m.s-1","parameterCategory":1,"la1":30.2991,"la2":30.254,"lo1":-89.0895,"lo2":-89.0444,"dy":0.0017,"dx":0.0017,"nx":28,"ny":28,"refTime":"2025-05-29T09:00:00:Z","depth":0,"parameterNumber":2,"parameterNumberName":"U-component_of_WINDS"},"data":[0,0,0,0,0,0,0,0,0,0,0,0,0,0,0,0,0,0,0,0,0,0,0,0,0,0,0,0,0,0,0,0,0,0,0,0,0,0,0,0,0,0,0,0,0,0,0,0,0,0,0,0,0,0,0,0,0,0,4.152,4.1521,0,4.1633,4.1635,4.1636,4.1632,4.1631,4.1629,4.1628,4.1747,4.1751,4.1756,0,0,0,0,0,0,0,0,0,0,0,0,0,4.1306,4.131,4.152,4.1521,4.1523,4.1633,4.1635,4.1636,4.1633,4.1631,4.1629,4.1627,4.1745,4.1751,4.1756,0,0,0,0,0,0,0,0,0,0,0,0,0,4.1407,4.1312,4.152,4.1534,4.1537,4.1633,4.1635,4.1637,4.1633,4.1631,4.1628,4.1626,4.1744,4.175,4.1757,4.1847,0,0,4.1778,4.1781,0,0,0,0,0,0,0,0,4.1402,4.1415,4.1531,4.1534,4.1536,4.1616,4.1603,4.1707,4.1634,4.1597,4.1628,4.1625,4.1706,4.1715,4.1742,4.1853,4.1858,4.1779,4.1783,4.1786,4.1788,0,0,0,0,0,0,0,4.1395,4.141,4.1565,4.1533,4.1536,4.1537,4.1549,4.1623,4.1663,4.16,4.16,4.1613,4.1707,4.1735,4.1745,4.1859,4.1779,4.1785,4.1789,4.1792,4.2054,4.2057,0,0,0,0,0,0,4.1384,4.1405,4.1561,4.1568,4.1462,4.1543,4.1556,4.1593,4.1662,4.167,4.1615,4.1612,4.1725,4.1737,4.1749,4.1862,4.1786,4.1793,4.1797,4.2052,4.2055,4.2058,0,0,0,0,0,0,4.1379,4.1398,4.1557,4.1487,4.1507,4.1549,4.1591,4.1597,4.1625,4.1674,4.1681,4.1636,4.1723,4.1739,4.1823,4.1866,4.1796,4.1802,4.2048,4.2053,4.2057,4.2086,0,0,0,0,0,0,4.1373,4.1396,4.1429,4.1487,4.1511,4.1628,4.1593,4.16,4.1637,4.1635,4.1696,4.1704,4.1723,4.1813,4.183,4.1874,4.1807,4.2045,4.205,4.2055,4.2082,4.2091,4.2099,0,0,0,0,0,4.1366,4.1433,4.1431,4.145,4.1553,4.163,4.1644,4.1663,4.164,4.1675,4.1707,4.1702,4.1858,4.1822,4.1841,4.1887,4.2042,4.2049,4.2055,4.2078,4.2089,4.2099,0,0,0,0,0,0,4.1379,4.1441,4.1439,4.1527,4.1573,4.1629,4.1674,4.1674,4.1728,4.1724,4.1747,4.1761,4.1846,4.1875,4.1834,4.1981,4.1948,4.1958,4.1958,4.1969,4.1978,4.197,4.1813,0,0,0,0,0,4.1392,4.1449,4.15,4.1573,4.1596,4.1631,4.1665,4.1677,4.1726,4.1746,4.1783,4.1833,4.1894,4.1933,4.1991,4.2086,4.2101,4.2128,4.2136,4.2143,4.2152,4.2208,4.2222,4.2079,4.2079,4.2079,0,0,4.142,4.1461,4.1495,4.1576,4.1614,4.1674,4.1647,4.1711,4.1757,4.1756,4.1838,4.1868,4.1925,4.2016,4.2058,4.2043,4.2195,4.2151,4.2156,4.2162,4.2216,4.223,4.2242,4.2083,4.2082,4.2082,0,0,4.1502,4.1537,4.1603,4.1641,4.1698,4.1722,4.1738,4.1794,4.1814,4.1897,4.1899,4.1954,4.2057,4.2099,4.2133,4.2235,4.2234,4.2253,4.2298,4.2353,4.2364,4.2374,4.2413,4.2427,4.2262,4.2262,4.2262,0,4.1529,4.1618,4.1637,4.1702,4.174,4.1741,4.181,4.1847,4.192,4.1947,4.1929,4.2061,4.2099,4.2201,4.2226,4.2253,4.2275,4.2246,4.2361,4.2371,4.2381,4.2418,4.2433,4.2264,4.2264,4.2264,4.2264,0,4.1652,4.1714,4.176,4.1832,4.1874,4.1941,4.1972,4.2013,4.2021,4.2047,4.2134,4.218,4.2249,4.2274,4.2282,4.2379,4.2369,4.2355,4.2323,4.2396,4.2432,4.2446,4.2267,4.2267,4.2266,4.2265,0,0,4.1744,4.1826,4.1843,4.1877,4.1941,4.1991,4.2059,4.2126,4.2163,4.2214,4.2274,4.2363,4.2352,4.2391,4.2405,4.2452,4.2534,4.2434,4.2435,4.2453,4.2647,4.2658,4.2674,4.2533,4.2536,4.2538,4.2643,0,4.1834,4.1954,4.1974,4.208,4.214,4.2144,4.2204,4.2252,4.2279,4.2335,4.2365,4.2429,4.2408,4.2432,4.2479,4.2514,4.2573,4.2506,4.2591,4.2594,4.2579,4.2692,4.2703,4.28,4.2657,4.2659,4.2661,0,4.1955,4.201,4.2122,4.2182,4.2208,4.2261,4.2326,4.2379,4.2434,4.2451,4.2496,4.2505,4.2579,4.2543,4.2647,4.2601,4.2637,4.266,4.2664,4.2674,4.2633,4.2708,4.2831,4.2847,4.2683,4.2681,4.2679,0,4.2015,4.2117,4.2198,4.2227,4.2297,4.2335,4.2367,4.2419,4.246,4.2518,4.2545,4.261,4.2647,4.2699,4.2726,4.2697,4.283,4.2795,4.2848,4.2847,4.2876,4.2874,4.301,4.2897,4.2896,4.2896,4.2896,0,4.2115,4.2184,4.2226,4.2276,4.2355,4.2379,4.2457,4.2488,4.2535,4.2593,4.2601,4.2655,4.2687,4.2748,4.277,4.2855,4.287,4.2888,4.2893,4.2888,4.2887,4.2914,4.2908,4.29,4.2899,4.2898,4.2898,0,4.2195,4.2225,4.2315,4.2375,4.2392,4.2448,4.25,4.2551,4.2578,4.2652,4.2671,4.2715,4.2786,4.2819,4.2907,4.2922,4.302,4.3019,4.3001,4.3003,4.3055,4.3051,4.3214,4.3238,4.3107,4.3108,4.3109,0,4.2257,4.2311,4.2377,4.2417,4.2449,4.2512,4.2554,4.258,4.2624,4.2693,4.2735,4.2807,4.2866,4.2981,4.3022,4.3091,4.3093,4.3146,4.3104,4.3098,4.3098,4.3095,4.3102,4.3154,4.3155,4.3156,4.3157,0,4.2366,4.238,4.2439,4.2505,4.2554,4.2607,4.2659,4.2691,4.2727,4.2776,4.2849,4.2895,4.2986,4.3058,4.313,4.3165,4.3169,4.317,4.3187,4.3183,4.3171,4.3181,4.3024,4.3167,4.3166,4.3165,4.3164,4.3164,4.2442,4.249,4.2546,4.2613,4.2655,4.2704,4.2755,4.279,4.2851,4.2927,4.2939,4.3018,4.3076,4.3172,4.321,4.3274,4.3261,4.3284,4.3291,4.3297,4.3301,4.316,4.3287,4.3286,4.3286,4.3286,4.3286,0,4.2553,4.2589,4.265,4.2724,4.2777,4.2775,4.2833,4.2879,4.2948,4.3,4.3059,4.3145,4.3216,4.3263,4.3336,4.3378,4.3382,4.3397,4.3395,4.3404,4.3306,4.3286,4.3393,4.3393,4.3393,4.3393,4.3393,4.3393,4.2618,4.2701,4.2722,4.2828,4.2864,4.2941,4.2975,4.3022,4.3065,4.316,4.3219,4.3249,4.3301,4.3378,4.3444,4.3457,4.3484,4.35,4.3512,4.3421,4.341,4.3399,4.338,4.3505,4.3505,4.3604,4.3605,4.3606]},{"header":{"parameterUnit":"m.s-1","parameterCategory":1,"la1":30.2991,"la2":30.254,"lo1":-89.0895,"lo2":-89.0444,"dy":0.0017,"dx":0.0017,"nx":28,"ny":28,"refTime":"2025-05-29T09:00:00:Z","depth":0,"parameterNumber":3,"parameterNumberName":"V-component_of_WINDS"},"data":[0,0,0,0,0,0,0,0,0,0,0,0,0,0,0,0,0,0,0,0,0,0,0,0,0,0,0,0,0,0,0,0,0,0,0,0,0,0,0,0,0,0,0,0,0,0,0,0,0,0,0,0,0,0,0,0,0,0,-1.1877,-1.1877,0,-1.1909,-1.191,-1.191,-1.1965,-1.1966,-1.1967,-1.1968,-1.2,-1.2,-1.2,0,0,0,0,0,0,0,0,0,0,0,0,0,-1.1862,-1.1862,-1.1877,-1.1877,-1.1878,-1.1909,-1.191,-1.191,-1.1964,-1.1966,-1.1967,-1.1968,-1.2,-1.2,-1.2,0,0,0,0,0,0,0,0,0,0,0,0,0,-1.1879,-1.1862,-1.1877,-1.1908,-1.1912,-1.1909,-1.191,-1.191,-1.1964,-1.1966,-1.1967,-1.1969,-1.2,-1.2,-1.2,-1.1969,0,0,-1.2,-1.2,0,0,0,0,0,0,0,0,-1.1878,-1.1879,-1.1903,-1.1906,-1.191,-1.1935,-1.1917,-1.193,-1.1964,-1.1944,-1.1968,-1.1969,-1.1977,-1.1979,-1.1982,-1.197,-1.1972,-1.2,-1.2,-1.1999,-1.1999,0,0,0,0,0,0,0,-1.1876,-1.1878,-1.189,-1.1904,-1.1908,-1.1921,-1.1925,-1.1919,-1.1952,-1.1946,-1.195,-1.1953,-1.1979,-1.1982,-1.1983,-1.1972,-1.2,-1.1999,-1.1999,-1.1999,-1.1939,-1.1937,0,0,0,0,0,0,-1.1871,-1.1877,-1.1889,-1.1891,-1.1897,-1.192,-1.1925,-1.1925,-1.1952,-1.1957,-1.1952,-1.1956,-1.1981,-1.1983,-1.1984,-1.195,-1.1999,-1.1999,-1.1999,-1.194,-1.1938,-1.1937,0,0,0,0,0,0,-1.187,-1.1871,-1.1887,-1.1885,-1.1888,-1.1919,-1.1919,-1.1925,-1.1928,-1.1956,-1.1962,-1.1949,-1.1982,-1.1984,-1.1973,-1.1952,-1.1999,-1.1999,-1.1942,-1.194,-1.1938,-1.1881,0,0,0,0,0,0,-1.1869,-1.1871,-1.1859,-1.1884,-1.1888,-1.1875,-1.1917,-1.1924,-1.1927,-1.1933,-1.1955,-1.196,-1.1984,-1.1973,-1.1973,-1.1953,-1.1999,-1.1944,-1.1941,-1.1938,-1.1885,-1.1877,-1.1871,0,0,0,0,0,-1.1869,-1.1841,-1.1858,-1.1859,-1.1874,-1.1873,-1.1876,-1.1904,-1.1925,-1.1914,-1.1933,-1.1959,-1.1955,-1.1971,-1.1971,-1.1951,-1.1945,-1.1942,-1.1939,-1.1888,-1.1879,-1.1871,0,0,0,0,0,0,-1.1812,-1.1845,-1.1864,-1.1844,-1.1855,-1.1883,-1.1869,-1.1893,-1.1898,-1.1903,-1.1937,-1.1942,-1.1926,-1.1938,-1.1955,-1.1923,-1.1954,-1.1951,-1.1916,-1.1907,-1.19,-1.1897,-1.1999,0,0,0,0,0,-1.1797,-1.1794,-1.1823,-1.1803,-1.1808,-1.1837,-1.1838,-1.1859,-1.1873,-1.1878,-1.1896,-1.1907,-1.1909,-1.1909,-1.1912,-1.1888,-1.1893,-1.1874,-1.1867,-1.1861,-1.1857,-1.1846,-1.1838,-1.1925,-1.1925,-1.1925,0,0,-1.1766,-1.1784,-1.178,-1.1792,-1.1803,-1.18,-1.1841,-1.1835,-1.1833,-1.1877,-1.1867,-1.1881,-1.1896,-1.1878,-1.1871,-1.1888,-1.1835,-1.1856,-1.1851,-1.1851,-1.1842,-1.1833,-1.1826,-1.1923,-1.1923,-1.1924,0,0,-1.1708,-1.1721,-1.1706,-1.1717,-1.1734,-1.1754,-1.1751,-1.1775,-1.1786,-1.1777,-1.181,-1.1808,-1.1809,-1.182,-1.1825,-1.1773,-1.1797,-1.1773,-1.1734,-1.1723,-1.1716,-1.1711,-1.1692,-1.1685,-1.1769,-1.1769,-1.1769,0,-1.1667,-1.1663,-1.1695,-1.1687,-1.1692,-1.1732,-1.1717,-1.1727,-1.1744,-1.1746,-1.1764,-1.1768,-1.1781,-1.1767,-1.1754,-1.1757,-1.1754,-1.177,-1.1715,-1.1709,-1.1704,-1.1687,-1.168,-1.1766,-1.1766,-1.1767,-1.1767,0,-1.1612,-1.1608,-1.1594,-1.161,-1.1614,-1.1602,-1.1633,-1.1632,-1.1654,-1.1672,-1.1663,-1.1681,-1.1688,-1.1687,-1.1707,-1.1676,-1.1685,-1.1709,-1.174,-1.1692,-1.1676,-1.167,-1.1761,-1.1763,-1.1763,-1.1764,0,0,-1.1516,-1.1552,-1.1546,-1.1555,-1.1578,-1.1576,-1.1567,-1.1575,-1.1574,-1.1585,-1.1579,-1.158,-1.1602,-1.1608,-1.1631,-1.1621,-1.1579,-1.1646,-1.1647,-1.1633,-1.1546,-1.1527,-1.1519,-1.1596,-1.1595,-1.1594,-1.1544,0,-1.1462,-1.1449,-1.1478,-1.1458,-1.1456,-1.1495,-1.1488,-1.1501,-1.1519,-1.152,-1.1539,-1.154,-1.1569,-1.1573,-1.1566,-1.1585,-1.1562,-1.159,-1.159,-1.159,-1.1584,-1.1511,-1.1491,-1.1443,-1.1538,-1.1537,-1.1537,0,-1.1397,-1.1406,-1.1385,-1.1411,-1.1411,-1.1403,-1.1414,-1.1414,-1.1431,-1.1444,-1.1452,-1.1479,-1.1472,-1.1504,-1.1496,-1.1514,-1.1516,-1.1526,-1.1525,-1.1525,-1.1559,-1.1508,-1.1428,-1.142,-1.1527,-1.1528,-1.1529,0,-1.1329,-1.1336,-1.1325,-1.1331,-1.136,-1.1354,-1.1366,-1.1385,-1.1388,-1.1397,-1.14,-1.1408,-1.1413,-1.1419,-1.1447,-1.1467,-1.1436,-1.1469,-1.1447,-1.1446,-1.1437,-1.1437,-1.1355,-1.144,-1.144,-1.144,-1.144,0,-1.1266,-1.1251,-1.1295,-1.1288,-1.1273,-1.1308,-1.1293,-1.1309,-1.1325,-1.1322,-1.1358,-1.1354,-1.1392,-1.1393,-1.1415,-1.1405,-1.1407,-1.1418,-1.1424,-1.1414,-1.1413,-1.1415,-1.1419,-1.1438,-1.1439,-1.1439,-1.1439,0,-1.1187,-1.1216,-1.1206,-1.1235,-1.1243,-1.1231,-1.1256,-1.1251,-1.1272,-1.1267,-1.1268,-1.13,-1.1304,-1.1333,-1.1342,-1.1357,-1.1339,-1.1351,-1.1333,-1.1337,-1.1312,-1.1314,-1.1228,-1.1219,-1.131,-1.1309,-1.1308,0,-1.1144,-1.1134,-1.1163,-1.1164,-1.1174,-1.1175,-1.1179,-1.1213,-1.1216,-1.1235,-1.1228,-1.1234,-1.124,-1.1244,-1.1268,-1.1275,-1.1288,-1.1258,-1.1289,-1.128,-1.1287,-1.1287,-1.1286,-1.1251,-1.1249,-1.1248,-1.1248,0,-1.1064,-1.1079,-1.1084,-1.1094,-1.1098,-1.1107,-1.1118,-1.1117,-1.1155,-1.1156,-1.116,-1.1165,-1.1176,-1.1181,-1.1194,-1.1206,-1.1233,-1.1238,-1.1233,-1.1222,-1.1212,-1.1217,-1.1314,-1.1239,-1.124,-1.1241,-1.1241,-1.1242,-1.1002,-1.0995,-1.1015,-1.1019,-1.1032,-1.1042,-1.1039,-1.106,-1.1063,-1.1074,-1.1095,-1.1096,-1.1114,-1.1134,-1.1144,-1.1146,-1.1162,-1.1154,-1.1153,-1.115,-1.1145,-1.1213,-1.1148,-1.1149,-1.1149,-1.1149,-1.1149,0,-1.0924,-1.0939,-1.0943,-1.0958,-1.0961,-1.0988,-1.1002,-1.1003,-1.1004,-1.1019,-1.1025,-1.103,-1.1036,-1.1061,-1.107,-1.1066,-1.1079,-1.1068,-1.1068,-1.107,-1.113,-1.1133,-1.1057,-1.1057,-1.1057,-1.1057,-1.1057,-1.1057,-1.0884,-1.0874,-1.0892,-1.0889,-1.0904,-1.0906,-1.0912,-1.0922,-1.0934,-1.0938,-1.0943,-1.096,-1.098,-1.0991,-1.0998,-1.1005,-1.1006,-1.0991,-1.1002,-1.1057,-1.1066,-1.1074,-1.1078,-1.0991,-1.0991,-1.0942,-1.0941,-1.0941]}]]